カタログに戻る

FENGYUN 1C DEB

運用中SSO
NORAD 33740·DEBRIS·🇨🇳 China

打ち上げ May 10, 1999 から Taiyuan Satellite Launch Center

Loading…

次のパス (今後24時間)

TLE

最新Source: Space-Track

元期: Sep 14, 2026, 06:48 UTC

1 33740U 99025DJD 26257.28372859  .00000091  00000-0  72164-4 0  9992
2 33740  98.6817 266.6843 0002539  91.3484 268.7979 14.12452350940368

AllMySatでFENGYUN 1C DEBをリアルタイム追跡

Download on the App Store